This is the latest recevied weather packets stored in our database for station/object N8XHB. If no packets are shown the sender has not sent any weather packets the latest 10 day(s).
| Time | Temp. | Humidity | Pressure | Rain* | Wind** | Luminosity | Snow |
|---|---|---|---|---|---|---|---|
| 1778023304 | 10.56° C | 44% | 1008.5 hPa | 0 mm | - | 51 W/m² | - |
| 1778023000 | 10.56° C | 43% | 1008.7 hPa | 0 mm | - | 52 W/m² | - |
| 1778022699 | 10.56° C | 43% | 1008.7 hPa | 0 mm | - | 68 W/m² | - |
| 1778022397 | 10.56° C | 43% | 1008.7 hPa | 0 mm | - | 70 W/m² | - |
| 1778022093 | 10.56° C | 42% | 1008.9 hPa | 0 mm | - | 73 W/m² | - |
| 1778021789 | 10.56° C | 42% | 1008.8 hPa | 0 mm | - | 68 W/m² | - |
| 1778021486 | 10.56° C | 41% | 1008.7 hPa | 0 mm | - | 75 W/m² | - |
| 1778021182 | 11.11° C | 42% | 1008.9 hPa | 0 mm | - | 81 W/m² | - |
| 1778020880 | 11.11° C | 41% | 1008.8 hPa | 0 mm | - | 101 W/m² | - |
| 1778020577 | 11.11° C | 42% | 1008.7 hPa | 0 mm | - | 108 W/m² | - |
| 1778020273 | 11.11° C | 41% | 1008.7 hPa | 0 mm | - | 99 W/m² | - |
| 1778019969 | 11.11° C | 41% | 1008.6 hPa | 0 mm | - | 110 W/m² | - |
| 1778019665 | 11.11° C | 39% | 1008.7 hPa | 0 mm | - | 95 W/m² | - |
| 1778019363 | 11.11° C | 40% | 1008.7 hPa | 0 mm | - | 131 W/m² | - |
| 1778019059 | 11.11° C | 39% | 1008.6 hPa | 0 mm | - | 122 W/m² | - |
| 1778018757 | 11.11° C | 40% | 1008.4 hPa | 0 mm | - | 124 W/m² | - |
| 1778018454 | 11.11° C | 41% | 1008.7 hPa | 0 mm | - | 115 W/m² | - |
| 1778018152 | 11.11° C | 39% | 1008.8 hPa | 0 mm | - | 118 W/m² | - |
| 1778017850 | 11.11° C | 39% | 1008.6 hPa | 0 mm | - | 116 W/m² | - |
| 1778017548 | 11.11° C | 40% | 1008.7 hPa | 0 mm | - | 118 W/m² | - |
| 1778017244 | 11.11° C | 40% | 1008.8 hPa | 0 mm | - | 118 W/m² | - |
| 1778016942 | 11.11° C | 40% | 1009 hPa | 0 mm | - | 122 W/m² | - |
| 1778016638 | 11.11° C | 39% | 1008.7 hPa | 0 mm | - | 126 W/m² | - |
| 1778016335 | 11.11° C | 39% | 1008.8 hPa | 0 mm | - | 132 W/m² | - |
| 1778016032 | 11.11° C | 39% | 1008.7 hPa | 0 mm | - | 135 W/m² | - |
* Rain latest hour (hover to see other rain measurements)
** Current wind speed in m/s (hover to see current wind gust speed)